Regional Weather Roundup
Issued by NWS Mt. Holly, NJ

Home | Current Version | Previous Version | Text Only | Print | Product List | Glossary On
Versions: 1 2 3 4 5 6 7 8 9 10 11 12 13 14 15 16 17 18 19 20 21 22 23 24 25 26 27
000
ASUS41 KPHI 161712
RWRPHI

REGIONAL WEATHER ROUNDUP
NATIONAL WEATHER SERVICE MOUNT HOLLY NJ
1200 PM EST MON JAN 16 2017

NOTE:  "FAIR" INDICATES FEW OR NO CLOUDS BELOW 12,000 FEET WITH NO
SIGNIFICANT WEATHER AND/OR OBSTRUCTIONS TO VISIBILITY.

 * = STATION DOES NOT REPORT PRECIPITATION (E.G. RAIN, SNOW, ETC.)
        OR FOG.

NJZ015>026-161800-
SOUTHERN NEW JERSEY

CITY           SKY/WX    TMP DP  RH WIND       PRES   REMARKS
POMONA         SUNNY     41  20  43 VRB3      30.44F
MILLVILLE      CLOUDY    41  23  48 NW5       30.45F
WRIGHTSTOWN    SUNNY     40  21  45 VRB3      30.41F
MOUNT HOLLY    SUNNY     39  21  48 CALM      30.45F
TRENTON        SUNNY     39  23  52 VRB3      30.44F

$$
NJZ001>014-161800-
NORTHERN NEW JERSEY

CITY           SKY/WX    TMP DP  RH WIND       PRES   REMARKS
SUSSEX         SUNNY     35  21  56 SW5       30.40F WCI  31
ANDOVER*         N/A     34  21  59 VRB5      30.41F WCI  30
MORRISTOWN     MOSUNNY   37  21  52 SW6       30.45F WCI  33
NEWARK         PTSUNNY   40  21  46 SW5       30.44F
TETERBORO      SUNNY     38  21  50 S7        30.43F WCI  33
CALDWELL       SUNNY     36  20  52 W7        30.44F WCI  30
SOMERVILLE     SUNNY     38  22  52 CALM      30.43F
ALLAIRE*       SUNNY     39  21  48 SW3       30.45F
TOMS RIVER*    SUNNY     41  21  44 SW3       30.45F

$$
PAZ043-044-047-054-055-060>062-066>071-161800-
EASTERN PENNSYLVANIA

CITY           SKY/WX    TMP DP  RH WIND       PRES   REMARKS
PHILADELPHIA   PTSUNNY   38  23  55 SW5       30.46F WCI  34
NORTH PHILA    SUNNY     42  21  43 CALM      30.46F
BLUE BELL*     SUNNY     37  23  56 CALM      30.43F
DOYLESTOWN     SUNNY     39  21  48 W3        30.42F
QUAKERTOWN*    SUNNY     37  19  48 SW5       30.43F WCI  34
PERKASIE*      FAIR      37  21  52 SW5       30.43F WCI  34
POTTSTOWN      SUNNY     36  21  54 NW5       30.45F WCI  32
LANCASTER      CLOUDY    36  27  69 CALM      30.44F
COATESVILLE    SUNNY     37  21  52 CALM      30.43F
READING        SUNNY     37  22  54 VRB5      30.43F WCI  33
ALLENTOWN      SUNNY     36  21  54 CALM      30.44F
MOUNT POCONO   SUNNY     33  16  49 W15       30.33F WCI  23
HAZLETON       SUNNY     41  25  52 CALM      30.38F
LEHIGHTON        N/A     34  21  60 SW3       30.43F
WILKES BARRE   SUNNY     30  20  66 SW7       30.39F WCI  23

$$
DEZALL-MDZ008-012-015-019-020-161800-
DELAWARE AND EASTERN MARYLAND

CITY           SKY/WX    TMP DP  RH WIND       PRES   REMARKS
WILMINGTON     CLOUDY    38  24  57 CALM      30.46F
DOVER          CLOUDY    39  29  67 CALM      30.44F
GEORGETOWN     CLOUDY    42  27  55 CALM      30.45F
EASTON         CLOUDY    39  27  60 CALM      30.50F
ABERDEEN       CLOUDY    35  24  65 CALM      30.47F
PATUXENT       CLOUDY    39  32  76 SE5       30.46F
OCEAN CITY     CLOUDY    41  27  57 E6        30.46F
WALLOPS ISLAND CLOUDY    41  34  76 E6        30.47F
CAMBRIDGE      CLOUDY    39  27  60 CALM      30.45F
SALISBURY      CLOUDY    41  27  57 CALM      30.45F

$$
PAZ001-021-NYZ056-072-MDZ011-DCZ001-161800-
OTHER NEARBY LOCATIONS

CITY           SKY/WX    TMP DP  RH WIND       PRES   REMARKS
HARRISBURG     CLOUDY    33  24  69 SE3       30.44F
STATE COLLEGE  PTSUNNY   30  25  80 CALM      30.36F
WILLIAMSPORT   SUNNY     30  22  72 SE3       30.41F
BINGHAMTON     SUNNY     31  18  58 SW7       30.31F WCI  24
NEW YORK CITY  SUNNY     38  21  50 VRB3      30.45F
BALTIMORE      CLOUDY    39  27  62 CALM      30.45F
WASHINGTON DC  CLOUDY    42  29  59 S9        30.46F

$$




USA.gov is the U.S. government's official web portal to all federal, state and local government web resources and services.